[[{"header":{"parameterUnit":"m.s-1","parameterCategory":1,"la1":30.2992,"la2":30.254,"lo1":-89.0895,"lo2":-89.0443,"dy":0.0025,"dx":0.0025,"nx":19,"ny":19,"refTime":"2026-04-01T03:00:00:Z","depth":0,"parameterNumber":2,"parameterNumberName":"U-component_of_WINDS"},"data":[0,0,0,-4.6725,-4.6728,-4.6846,-4.6847,-4.7006,-4.7008,0,0,0,0,0,0,0,0,0,0,0,-4.6697,-4.6699,-4.6725,-4.6728,-4.6846,-4.6847,-4.7006,-4.7008,0,0,0,0,0,0,0,0,0,0,0,-4.6697,-4.6698,-4.67,-4.6729,-4.6846,-4.6847,-4.7006,-4.6913,0,0,0,0,0,0,0,0,0,0,-4.6796,-4.6778,-4.6698,-4.67,-4.6729,-4.6846,-4.6847,-4.6908,-4.6919,-4.6957,0,-4.6995,0,-4.7005,-4.7019,-4.702,0,0,0,-4.6722,-4.677,-4.6795,-4.67,-4.673,-4.6846,-4.6791,-4.6914,-4.6926,-4.6971,-4.6997,-4.7003,-4.7007,-4.7021,-4.7021,-4.7268,-4.7269,0,0,-4.6715,-4.6722,-4.6787,-4.6804,-4.6788,-4.6787,-4.6795,-4.6921,-4.6949,-4.6998,-4.7007,-4.701,-4.7022,-4.7023,-4.7266,-4.7268,0,0,0,-4.6701,-4.6718,-4.674,-4.6797,-4.6818,-4.6791,-4.68,-4.6944,-4.695,-4.7008,-4.7012,-4.7023,-4.7025,-4.7265,-4.7267,-4.7343,0,0,0,-4.6697,-4.6709,-4.6737,-4.6742,-4.6816,-4.6883,-4.682,-4.6942,-4.6956,-4.7011,-4.7023,-4.7026,-4.7263,-4.7266,-4.7338,-4.7377,0,0,0,-4.6687,-4.6708,-4.6728,-4.6743,-4.6794,-4.6881,-4.6895,-4.6945,-4.6958,-4.702,-4.7027,-4.7262,-4.7266,-4.7333,-4.7369,-4.7442,0,0,0,-4.6678,-4.6794,-4.6729,-4.6859,-4.6793,-4.6929,-4.6894,-4.6994,-4.7056,-4.7024,-4.7264,-4.7267,-4.7331,-4.7364,-4.7436,-4.7502,-4.7531,0,0,-4.6827,-4.6812,-4.6888,-4.6834,-4.6982,-4.691,-4.7069,-4.7119,-4.7119,-4.7218,-4.7223,-4.7339,-4.7368,-4.744,-4.7696,-4.7719,0,0,0,-4.6937,-4.6991,-4.703,-4.709,-4.7133,-4.7172,-4.7198,-4.7217,-4.7301,-4.7172,-4.7387,-4.7404,-4.7446,-4.7477,-4.7496,-4.753,-4.7282,-4.7282,-4.7282,-4.7154,-4.7149,-4.7274,-4.7283,-4.7343,-4.7369,-4.7416,-4.7445,-4.7422,-4.7473,-4.7501,-4.7657,-4.7694,-4.7708,-4.7744,-4.7538,-4.7538,-4.7539,-4.7539,-4.7369,-4.7444,-4.7413,-4.7522,-4.7515,-4.7606,-4.7637,-4.7617,-4.7699,-4.7635,-4.7672,-4.7599,-4.7734,-4.7764,-4.7544,-4.7544,-4.7543,-4.7542,-4.7542,-4.7507,-4.7542,-4.7565,-4.7653,-4.7721,-4.7726,-4.7807,-4.7799,-4.7791,-4.7828,-4.7855,-4.7853,-4.7848,-4.7842,-4.7843,-4.7843,-4.7844,-4.7844,-4.7845,-4.764,-4.7664,-4.7734,-4.7791,-4.7829,-4.7877,-4.7906,-4.7943,-4.798,-4.7967,-4.7967,-4.7936,-4.775,-4.77,-4.7853,-4.7851,-4.785,-4.785,-4.7849,-4.7854,-4.7805,-4.7913,-4.7951,-4.8016,-4.8083,-4.8073,-4.8148,-4.8177,-4.8217,-4.818,-4.8044,-4.8027,-4.8011,-4.797,-4.8183,-4.8183,-4.8183,-4.8183,-4.7968,-4.796,-4.8068,-4.8129,-4.8189,-4.8191,-4.8311,-4.8335,-4.8351,-4.8368,-4.8338,-4.8284,-4.8269,-4.826,-4.8239,-4.82,-4.8467,-4.8467,-4.8468,-4.8097,-4.8095,-4.8199,-4.8217,-4.8267,-4.831,-4.8422,-4.8492,-4.8501,-4.8479,-4.8381,-4.8369,-4.8282,-4.8255,-4.8226,-4.8194,-4.8123,0,0]},{"header":{"parameterUnit":"m.s-1","parameterCategory":1,"la1":30.2992,"la2":30.254,"lo1":-89.0895,"lo2":-89.0443,"dy":0.0025,"dx":0.0025,"nx":19,"ny":19,"refTime":"2026-04-01T03:00:00:Z","depth":0,"parameterNumber":3,"parameterNumberName":"V-component_of_WINDS"},"data":[0,0,0,3.6953,3.6955,3.7045,3.7045,3.7165,3.7166,0,0,0,0,0,0,0,0,0,0,0,3.6931,3.6932,3.6953,3.6955,3.7044,3.7045,3.7165,3.7166,0,0,0,0,0,0,0,0,0,0,0,3.693,3.6932,3.6933,3.6956,3.7044,3.7045,3.7165,3.7095,0,0,0,0,0,0,0,0,0,0,3.7007,3.6991,3.6931,3.6933,3.6956,3.7044,3.7045,3.7091,3.7099,3.7128,0,3.7154,0,3.7162,3.7175,3.7175,0,0,0,3.6952,3.6984,3.7005,3.6933,3.6957,3.7044,3.7003,3.7096,3.7105,3.7138,3.7156,3.716,3.7164,3.7176,3.7176,3.7355,3.7355,0,0,3.6947,3.6949,3.6999,3.7011,3.6998,3.7,3.7006,3.7101,3.712,3.7156,3.7163,3.7166,3.7176,3.7177,3.7354,3.7355,0,0,0,3.6935,3.6945,3.6964,3.7006,3.7022,3.7003,3.701,3.7116,3.7122,3.7164,3.7168,3.7177,3.7179,3.7352,3.7354,3.7407,0,0,0,3.6932,3.6938,3.6962,3.6963,3.702,3.707,3.7023,3.7115,3.7126,3.7167,3.7177,3.718,3.7351,3.7353,3.7403,3.7431,0,0,0,3.6924,3.6937,3.6952,3.6963,3.7002,3.7068,3.708,3.7118,3.7129,3.7175,3.718,3.7351,3.7353,3.7399,3.7425,3.748,0,0,0,3.6914,3.6995,3.6953,3.7044,3.7001,3.71,3.7079,3.7152,3.7199,3.7178,3.7351,3.7354,3.7398,3.7422,3.7476,3.7527,3.7548,0,0,3.7017,3.7007,3.7061,3.7026,3.7134,3.7087,3.7202,3.7241,3.7243,3.7317,3.7322,3.7404,3.7425,3.7479,3.7664,3.7681,0,0,0,3.7094,3.7133,3.7161,3.7207,3.7241,3.7272,3.7295,3.731,3.7374,3.7282,3.7438,3.745,3.7482,3.7506,3.752,3.7549,3.7365,3.7365,3.7364,3.724,3.7241,3.7331,3.7343,3.7388,3.7412,3.7449,3.7473,3.7458,3.7496,3.7518,3.763,3.7658,3.7669,3.7698,3.7544,3.7544,3.7544,3.7544,3.7391,3.7447,3.7429,3.751,3.7511,3.7579,3.7606,3.7594,3.7658,3.7612,3.7641,3.7592,3.7688,3.7713,3.7548,3.7548,3.7547,3.7547,3.7546,3.7487,3.7515,3.7534,3.7602,3.7655,3.7664,3.7728,3.7725,3.7723,3.775,3.7775,3.7774,3.7774,3.7762,3.7763,3.7763,3.7763,3.7764,3.7764,3.758,3.76,3.7654,3.77,3.7731,3.7771,3.7799,3.7829,3.7861,3.7855,3.7855,3.7838,3.7697,3.7662,3.777,3.7769,3.7768,3.7768,3.7767,3.7734,3.77,3.7783,3.7815,3.787,3.7924,3.7921,3.7983,3.8008,3.8039,3.8018,3.7913,3.7902,3.7891,3.7862,3.8016,3.8016,3.8016,3.8016,3.7816,3.7811,3.7898,3.7949,3.7998,3.8005,3.8101,3.8125,3.8143,3.8159,3.8136,3.8098,3.8086,3.8082,3.8067,3.804,3.8236,3.8236,3.8236,3.7912,3.7912,3.7994,3.8014,3.8058,3.8096,3.8187,3.8246,3.8259,3.8245,3.8171,3.8162,3.81,3.8079,3.8062,3.8038,3.7989,0,0]}]]